Location: Unspecified
(49.9820°N, 20.4363°E)
Time: 22:37:47
(UTC+02:00)

Explorer 7 - Visible Passes

Search period start: 15 May 2026 00:00
Search period end: 25 May 2026 00:00
Orbit: 427 x 536 km, 50.2° (Epoch: 15 May)

Date Brightness Start Highest point End Pass type
(mag) Time Alt. Az. Time Alt. Az. Time Alt. Az.
18 May 8.8 03:53:24 10° S 03:55:12 13° SE 03:57:01 10° ESE visible
19 May 8.8 03:25:59 10° SSE 03:27:30 12° SE 03:29:03 10° ESE visible
20 May 8.8 02:58:37 10° SSE 02:59:48 11° SE 03:01:01 10° ESE visible
21 May 8.8 02:31:37 10° SE 02:32:06 10° SE 02:32:47 10° SE visible
22 May 7.1 03:38:57 12° SW 03:41:52 40° SSE 03:45:16 10° E visible
23 May 7.1 03:12:01 18° SSW 03:14:07 38° SSE 03:17:28 10° E visible
24 May 7.2 02:45:03 25° SSW 02:46:21 35° SSE 02:49:38 10° E visible
